Time,TemperatureF,DewpointF,PressureIn,WindDirection,WindDirectionDegrees,WindSpeedMPH,WindSpeedGustMPH,Humidity,HourlyPrecipIn,Conditions,Clouds,dailyrainin,SoftwareType,DateUTC
2013-02-26 00:00:00,31.2,29.4,30.22,West,276,0.0,0.0,93,0.00,,,0.00,Wunderground v.1.15,2013-02-26 05:00:00,
2013-02-26 00:04:00,31.2,29.4,30.21,West,273,0.0,0.0,93,0.00,,,0.00,Wunderground v.1.15,2013-02-26 05:04:00,
2013-02-26 00:09:00,31.1,29.0,30.22,West,273,0.0,0.0,92,0.00,,,0.00,Wunderground v.1.15,2013-02-26 05:09:00,
2013-02-26 00:14:00,31.1,29.0,30.21,West,273,0.0,0.0,92,0.00,,,0.00,Wunderground v.1.15,2013-02-26 05:14:00,
2013-02-26 00:24:00,31.1,28.8,30.22,West,273,0.0,0.0,91,0.00,,,0.00,Wunderground v.1.15,2013-02-26 05:24:00,
2013-02-26 00:29:00,31.1,28.8,30.21,West,273,0.0,0.0,91,0.00,,,0.00,Wunderground v.1.15,2013-02-26 05:29:00,
2013-02-26 00:34:00,31.0,28.7,30.21,West,273,0.0,2.0,91,0.00,,,0.00,Wunderground v.1.15,2013-02-26 05:34:00,
2013-02-26 00:39:00,31.0,28.7,30.21,West,272,0.0,2.0,91,0.00,,,0.00,Wunderground v.1.15,2013-02-26 05:39:00,
2013-02-26 00:44:00,31.0,28.7,30.22,West,273,0.0,2.0,91,0.00,,,0.00,Wunderground v.1.15,2013-02-26 05:44:00,
2013-02-26 00:54:00,30.9,28.6,30.21,West,273,0.0,2.0,91,0.00,,,0.00,Wunderground v.1.15,2013-02-26 05:54:00,
2013-02-26 00:59:00,30.9,28.6,30.21,West,273,0.0,0.0,91,0.00,,,0.00,Wunderground v.1.15,2013-02-26 05:59:00,
2013-02-26 01:09:00,30.8,28.5,30.21,West,273,0.0,0.0,91,0.00,,,0.00,Wunderground v.1.15,2013-02-26 06:09:00,
2013-02-26 01:14:00,30.9,28.3,30.21,West,273,0.0,0.0,90,0.00,,,0.00,Wunderground v.1.15,2013-02-26 06:14:00,
2013-02-26 01:19:00,31.0,28.4,30.21,West,273,0.0,0.0,90,0.00,,,0.00,Wunderground v.1.15,2013-02-26 06:19:00,
2013-02-26 01:29:00,31.1,28.5,30.21,West,273,0.0,0.0,90,0.00,,,0.00,Wunderground v.1.15,2013-02-26 06:29:00,
2013-02-26 01:34:00,31.0,28.4,30.22,West,273,0.0,1.0,90,0.00,,,0.00,Wunderground v.1.15,2013-02-26 06:34:00,
2013-02-26 01:39:00,31.1,28.5,30.22,West,272,1.0,1.0,90,0.00,,,0.00,Wunderground v.1.15,2013-02-26 06:39:00,
2013-02-26 01:44:00,31.1,28.2,30.22,West,273,0.0,1.0,89,0.00,,,0.00,Wunderground v.1.15,2013-02-26 06:44:00,
2013-02-26 01:49:00,31.1,28.2,30.22,West,273,0.0,1.0,89,0.00,,,0.00,Wunderground v.1.15,2013-02-26 06:49:00,
2013-02-26 01:55:00,31.0,28.4,30.22,West,273,0.0,1.0,90,0.00,,,0.00,Wunderground v.1.15,2013-02-26 06:55:00,
2013-02-26 02:00:00,31.0,28.4,30.23,West,273,0.0,0.0,90,0.00,,,0.00,Wunderground v.1.15,2013-02-26 07:00:00,
2013-02-26 02:09:00,30.8,28.2,30.23,West,273,0.0,0.0,90,0.00,,,0.00,Wunderground v.1.15,2013-02-26 07:09:00,
2013-02-26 02:14:00,30.8,28.2,30.23,West,273,0.0,0.0,90,0.00,,,0.00,Wunderground v.1.15,2013-02-26 07:14:00,
2013-02-26 02:19:00,30.8,28.2,30.23,West,273,0.0,0.0,90,0.00,,,0.00,Wunderground v.1.15,2013-02-26 07:19:00,
2013-02-26 02:24:00,30.8,28.2,30.23,West,273,0.0,0.0,90,0.00,,,0.00,Wunderground v.1.15,2013-02-26 07:24:00,
2013-02-26 02:30:00,30.7,28.1,30.24,West,273,0.0,1.0,90,0.00,,,0.00,Wunderground v.1.15,2013-02-26 07:30:00,
2013-02-26 02:35:00,30.8,28.2,30.24,West,273,0.0,3.0,90,0.00,,,0.00,Wunderground v.1.15,2013-02-26 07:35:00,
2013-02-26 02:40:00,30.8,28.2,30.24,West,273,0.0,3.0,90,0.00,,,0.00,Wunderground v.1.15,2013-02-26 07:40:00,
2013-02-26 02:45:00,30.8,27.9,30.24,West,273,1.0,3.0,89,0.00,,,0.00,Wunderground v.1.15,2013-02-26 07:45:00,
2013-02-26 02:50:00,30.9,28.0,30.24,West,273,0.0,3.0,89,0.00,,,0.00,Wunderground v.1.15,2013-02-26 07:50:00,
2013-02-26 02:55:00,30.9,28.0,30.24,West,273,0.0,3.0,89,0.00,,,0.00,Wunderground v.1.15,2013-02-26 07:55:00,
2013-02-26 03:00:00,30.9,28.0,30.23,West,273,0.0,0.0,89,0.00,,,0.00,Wunderground v.1.15,2013-02-26 08:00:00,
2013-02-26 03:10:00,30.7,27.8,30.23,West,272,0.0,0.0,89,0.00,,,0.00,Wunderground v.1.15,2013-02-26 08:10:00,
2013-02-26 03:14:00,30.6,27.7,30.23,West,273,0.0,0.0,89,0.00,,,0.00,Wunderground v.1.15,2013-02-26 08:14:00,
2013-02-26 03:20:00,30.5,27.6,30.23,West,273,0.0,0.0,89,0.00,,,0.00,Wunderground v.1.15,2013-02-26 08:20:00,
2013-02-26 03:25:00,30.4,27.5,30.23,West,273,0.0,0.0,89,0.00,,,0.00,Wunderground v.1.15,2013-02-26 08:25:00,
2013-02-26 03:34:00,30.1,27.3,30.23,West,273,0.0,3.0,89,0.00,,,0.00,Wunderground v.1.15,2013-02-26 08:34:00,
2013-02-26 03:39:00,29.9,27.3,30.23,West,273,0.0,3.0,90,0.00,,,0.00,Wunderground v.1.15,2013-02-26 08:39:00,
2013-02-26 03:44:00,29.8,27.2,30.23,West,273,0.0,3.0,90,0.00,,,0.00,Wunderground v.1.15,2013-02-26 08:44:00,
2013-02-26 03:49:00,29.7,27.1,30.23,West,272,0.0,3.0,90,0.00,,,0.00,Wunderground v.1.15,2013-02-26 08:49:00,
2013-02-26 03:54:00,29.6,27.0,30.24,West,273,0.0,3.0,90,0.00,,,0.00,Wunderground v.1.15,2013-02-26 08:54:00,
2013-02-26 04:00:00,29.6,27.3,30.24,West,273,0.0,0.0,91,0.00,,,0.00,Wunderground v.1.15,2013-02-26 09:00:00,
2013-02-26 04:09:00,29.7,27.4,30.24,West,273,0.0,0.0,91,0.00,,,0.00,Wunderground v.1.15,2013-02-26 09:09:00,
2013-02-26 04:14:00,29.7,27.4,30.24,West,273,0.0,0.0,91,0.00,,,0.00,Wunderground v.1.15,2013-02-26 09:14:00,
2013-02-26 04:19:00,29.8,27.5,30.24,West,273,0.0,0.0,91,0.00,,,0.00,Wunderground v.1.15,2013-02-26 09:19:00,
2013-02-26 04:24:00,29.7,27.4,30.24,West,273,0.0,2.0,91,0.00,,,0.00,Wunderground v.1.15,2013-02-26 09:24:00,
2013-02-26 04:29:00,29.7,27.4,30.24,West,273,1.0,1.0,91,0.00,,,0.00,Wunderground v.1.15,2013-02-26 09:29:00,
2013-02-26 04:39:00,29.5,27.2,30.24,West,273,0.0,0.0,91,0.00,,,0.00,Wunderground v.1.15,2013-02-26 09:39:00,
2013-02-26 04:44:00,29.3,26.7,30.24,West,273,0.0,0.0,90,0.00,,,0.00,Wunderground v.1.15,2013-02-26 09:44:00,
2013-02-26 04:49:00,29.1,26.8,30.24,West,273,0.0,0.0,91,0.00,,,0.00,Wunderground v.1.15,2013-02-26 09:49:00,
2013-02-26 04:54:00,28.9,26.6,30.24,West,273,0.0,0.0,91,0.00,,,0.00,Wunderground v.1.15,2013-02-26 09:54:00,
2013-02-26 05:00:00,28.8,26.5,30.25,West,272,0.0,0.0,91,0.00,,,0.00,Wunderground v.1.15,2013-02-26 10:00:00,
2013-02-26 05:09:00,28.6,26.3,30.25,West,272,0.0,0.0,91,0.00,,,0.00,Wunderground v.1.15,2013-02-26 10:09:00,
2013-02-26 05:14:00,28.4,26.1,30.25,West,273,0.0,0.0,91,0.00,,,0.00,Wunderground v.1.15,2013-02-26 10:14:00,
2013-02-26 05:19:00,28.3,26.0,30.25,West,273,0.0,0.0,91,0.00,,,0.00,Wunderground v.1.15,2013-02-26 10:19:00,
2013-02-26 05:24:00,28.0,25.7,30.25,West,272,0.0,0.0,91,0.00,,,0.00,Wunderground v.1.15,2013-02-26 10:24:00,
2013-02-26 05:29:00,27.9,25.6,30.24,West,273,0.0,0.0,91,0.00,,,0.00,Wunderground v.1.15,2013-02-26 10:29:00,
2013-02-26 05:34:00,27.7,25.4,30.25,West,273,0.0,2.0,91,0.00,,,0.00,Wunderground v.1.15,2013-02-26 10:34:00,
2013-02-26 05:44:00,27.6,25.6,30.25,West,273,0.0,2.0,92,0.00,,,0.00,Wunderground v.1.15,2013-02-26 10:44:00,
2013-02-26 05:49:00,27.6,25.6,30.25,West,273,0.0,2.0,92,0.00,,,0.00,Wunderground v.1.15,2013-02-26 10:49:00,
2013-02-26 05:54:00,27.5,25.5,30.25,West,273,0.0,2.0,92,0.00,,,0.00,Wunderground v.1.15,2013-02-26 10:54:00,
2013-02-26 06:00:00,27.4,25.4,30.25,West,273,0.0,0.0,92,0.00,,,0.00,Wunderground v.1.15,2013-02-26 11:00:00,
2013-02-26 06:09:00,27.2,25.2,30.25,West,273,0.0,0.0,92,0.00,,,0.00,Wunderground v.1.15,2013-02-26 11:09:00,
2013-02-26 06:19:00,26.8,24.8,30.25,West,273,0.0,0.0,92,0.00,,,0.00,Wunderground v.1.15,2013-02-26 11:19:00,
2013-02-26 06:24:00,26.6,24.6,30.25,West,273,0.0,0.0,92,0.00,,,0.00,Wunderground v.1.15,2013-02-26 11:24:00,
2013-02-26 06:29:00,26.4,24.7,30.25,West,272,0.0,0.0,93,0.00,,,0.00,Wunderground v.1.15,2013-02-26 11:29:00,
2013-02-26 06:34:00,26.3,24.6,30.25,West,273,0.0,0.0,93,0.00,,,0.00,Wunderground v.1.15,2013-02-26 11:34:00,
2013-02-26 06:39:00,26.5,24.8,30.25,West,273,0.0,0.0,93,0.00,,,0.00,Wunderground v.1.15,2013-02-26 11:39:00,
2013-02-26 06:49:00,26.4,24.7,30.25,West,273,0.0,0.0,93,0.00,,,0.00,Wunderground v.1.15,2013-02-26 11:49:00,
2013-02-26 06:54:00,26.1,24.4,30.25,West,273,0.0,0.0,93,0.00,,,0.00,Wunderground v.1.15,2013-02-26 11:54:00,
2013-02-26 06:59:00,25.9,24.2,30.25,West,273,0.0,0.0,93,0.00,,,0.00,Wunderground v.1.15,2013-02-26 11:59:00,
2013-02-26 07:09:00,25.9,24.4,30.25,West,273,0.0,0.0,94,0.00,,,0.00,Wunderground v.1.15,2013-02-26 12:09:00,
2013-02-26 07:14:00,25.9,24.4,30.25,West,273,0.0,0.0,94,0.00,,,0.00,Wunderground v.1.15,2013-02-26 12:14:00,
2013-02-26 07:24:00,26.0,24.5,30.25,West,273,0.0,0.0,94,0.00,,,0.00,Wunderground v.1.15,2013-02-26 12:24:00,
2013-02-26 07:29:00,26.1,24.9,30.26,West,273,0.0,0.0,95,0.00,,,0.00,Wunderground v.1.15,2013-02-26 12:29:00,
2013-02-26 07:34:00,26.2,24.7,30.26,West,273,0.0,0.0,94,0.00,,,0.00,Wunderground v.1.15,2013-02-26 12:34:00,
2013-02-26 07:39:00,26.6,25.4,30.26,West,272,0.0,0.0,95,0.00,,,0.00,Wunderground v.1.15,2013-02-26 12:39:00,
2013-02-26 07:44:00,26.8,25.6,30.26,West,273,0.0,0.0,95,0.00,,,0.00,Wunderground v.1.15,2013-02-26 12:44:00,
2013-02-26 07:54:00,27.2,26.0,30.26,West,273,0.0,0.0,95,0.00,,,0.00,Wunderground v.1.15,2013-02-26 12:54:00,
2013-02-26 07:59:00,27.5,26.3,30.26,West,273,0.0,0.0,95,0.00,,,0.00,Wunderground v.1.15,2013-02-26 12:59:00,
2013-02-26 08:09:00,28.7,27.4,30.26,West,273,0.0,0.0,95,0.00,,,0.00,Wunderground v.1.15,2013-02-26 13:09:00,
2013-02-26 08:14:00,29.3,28.0,30.26,West,273,0.0,0.0,95,0.00,,,0.00,Wunderground v.1.15,2013-02-26 13:14:00,
2013-02-26 08:19:00,30.1,28.8,30.26,West,273,0.0,0.0,95,0.00,,,0.00,Wunderground v.1.15,2013-02-26 13:19:00,
2013-02-26 08:29:00,30.1,27.8,30.26,West,273,0.0,0.0,91,0.00,,,0.00,Wunderground v.1.15,2013-02-26 13:29:00,
2013-02-26 08:34:00,30.8,28.5,30.26,West,272,0.0,1.0,91,0.00,,,0.00,Wunderground v.1.15,2013-02-26 13:34:00,
2013-02-26 08:39:00,30.5,27.4,30.26,West,272,0.0,0.0,88,0.00,,,0.00,Wunderground v.1.15,2013-02-26 13:39:00,
2013-02-26 08:44:00,30.5,27.6,30.26,West,272,1.0,1.0,89,0.00,,,0.00,Wunderground v.1.15,2013-02-26 13:44:00,
2013-02-26 08:49:00,31.0,28.1,30.26,West,272,1.0,1.0,89,0.00,,,0.00,Wunderground v.1.15,2013-02-26 13:49:00,
2013-02-26 08:54:00,31.9,29.0,30.26,West,272,0.0,1.0,89,0.00,,,0.00,Wunderground v.1.15,2013-02-26 13:54:00,
2013-02-26 09:00:00,32.7,29.3,30.26,West,272,0.0,0.0,87,0.00,,,0.01,Wunderground v.1.15,2013-02-26 14:00:00,
2013-02-26 09:09:00,32.8,28.8,30.25,SW,236,2.0,2.0,85,0.00,,,0.01,Wunderground v.1.15,2013-02-26 14:09:00,
2013-02-26 09:14:00,33.0,29.0,30.25,SW,236,2.0,3.0,85,0.00,,,0.01,Wunderground v.1.15,2013-02-26 14:14:00,
2013-02-26 09:19:00,33.2,29.2,30.25,SW,215,2.0,3.0,85,0.00,,,0.01,Wunderground v.1.15,2013-02-26 14:19:00,
2013-02-26 09:29:00,33.7,29.4,30.25,SSW,212,2.0,2.0,84,0.00,,,0.01,Wunderground v.1.15,2013-02-26 14:29:00,
2013-02-26 09:34:00,34.4,30.1,30.24,SSW,212,2.0,2.0,84,0.00,,,0.02,Wunderground v.1.15,2013-02-26 14:34:00,
2013-02-26 09:39:00,35.0,30.4,30.24,SSW,212,1.0,2.0,83,0.00,,,0.02,Wunderground v.1.15,2013-02-26 14:39:00,
2013-02-26 09:44:00,35.3,30.4,30.24,SSW,212,1.0,2.0,82,0.00,,,0.02,Wunderground v.1.15,2013-02-26 14:44:00,
2013-02-26 09:49:00,35.7,30.4,30.24,SSW,211,1.0,2.0,81,0.00,,,0.02,Wunderground v.1.15,2013-02-26 14:49:00,
2013-02-26 09:54:00,36.0,30.1,30.24,SSW,211,1.0,2.0,79,0.00,,,0.02,Wunderground v.1.15,2013-02-26 14:54:00,
2013-02-26 10:00:00,36.4,30.5,30.24,SSW,211,1.0,1.0,79,0.00,,,0.02,Wunderground v.1.15,2013-02-26 15:00:00,
2013-02-26 10:09:00,37.0,30.1,30.24,ESE,121,2.0,5.0,76,0.00,,,0.02,Wunderground v.1.15,2013-02-26 15:09:00,
2013-02-26 10:14:00,37.1,29.9,30.24,SE,132,3.0,5.0,75,0.00,,,0.02,Wunderground v.1.15,2013-02-26 15:14:00,
2013-02-26 10:19:00,37.1,29.9,30.24,SE,134,3.0,3.0,75,0.00,,,0.02,Wunderground v.1.15,2013-02-26 15:19:00,
2013-02-26 10:24:00,37.1,29.9,30.24,SE,134,3.0,3.0,75,0.00,,,0.02,Wunderground v.1.15,2013-02-26 15:24:00,
2013-02-26 10:34:00,37.2,29.3,30.24,SE,143,4.0,4.0,73,0.00,,,0.02,Wunderground v.1.15,2013-02-26 15:34:00,
2013-02-26 10:39:00,37.1,29.6,30.24,SE,136,4.0,4.0,74,0.00,,,0.02,Wunderground v.1.15,2013-02-26 15:39:00,
2013-02-26 10:44:00,37.3,29.8,30.24,SE,130,5.0,5.0,74,0.00,,,0.02,Wunderground v.1.15,2013-02-26 15:44:00,
2013-02-26 10:49:00,37.4,29.9,30.24,SSE,165,5.0,5.0,74,0.00,,,0.02,Wunderground v.1.15,2013-02-26 15:49:00,
2013-02-26 10:54:00,37.8,30.3,30.25,SSE,161,3.0,5.0,74,0.00,,,0.02,Wunderground v.1.15,2013-02-26 15:54:00,
2013-02-26 11:00:00,38.2,30.3,30.24,SSE,153,4.0,4.0,73,0.00,,,0.02,Wunderground v.1.15,2013-02-26 16:00:00,
2013-02-26 11:09:00,38.9,29.9,30.25,SE,132,3.0,3.0,70,0.00,,,0.02,Wunderground v.1.15,2013-02-26 16:09:00,
2013-02-26 11:14:00,39.0,29.7,30.25,SE,133,3.0,3.0,69,0.00,,,0.02,Wunderground v.1.15,2013-02-26 16:14:00,
2013-02-26 11:19:00,39.2,30.2,30.24,SE,128,2.0,4.0,70,0.00,,,0.02,Wunderground v.1.15,2013-02-26 16:19:00,
2013-02-26 11:24:00,39.2,30.6,30.24,SE,140,3.0,4.0,71,0.00,,,0.02,Wunderground v.1.15,2013-02-26 16:24:00,
2013-02-26 11:29:00,39.5,30.9,30.24,SE,140,3.0,3.0,71,0.00,,,0.02,Wunderground v.1.15,2013-02-26 16:29:00,
2013-02-26 11:39:00,39.8,30.1,30.24,ESE,111,3.0,3.0,68,0.00,,,0.02,Wunderground v.1.15,2013-02-26 16:39:00,
2013-02-26 11:44:00,40.0,30.6,30.24,ESE,122,3.0,10.0,69,0.00,,,0.02,Wunderground v.1.15,2013-02-26 16:44:00,
2013-02-26 11:49:00,39.8,30.1,30.23,SE,129,3.0,10.0,68,0.00,,,0.02,Wunderground v.1.15,2013-02-26 16:49:00,
2013-02-26 11:54:00,39.7,30.0,30.23,ESE,123,3.0,10.0,68,0.00,,,0.02,Wunderground v.1.15,2013-02-26 16:54:00,
2013-02-26 12:00:00,39.8,30.1,30.23,SE,130,3.0,3.0,68,0.00,,,0.02,Wunderground v.1.15,2013-02-26 17:00:00,
2013-02-26 12:09:00,40.1,30.4,30.22,ESE,122,3.0,3.0,68,0.00,,,0.02,Wunderground v.1.15,2013-02-26 17:09:00,
2013-02-26 12:14:00,40.4,30.7,30.22,ESE,122,2.0,3.0,68,0.00,,,0.02,Wunderground v.1.15,2013-02-26 17:14:00,
2013-02-26 12:19:00,40.6,30.1,30.22,SE,146,2.0,4.0,66,0.00,,,0.02,Wunderground v.1.15,2013-02-26 17:19:00,
2013-02-26 12:24:00,40.9,30.0,30.22,SE,143,2.0,4.0,65,0.00,,,0.02,Wunderground v.1.15,2013-02-26 17:24:00,
2013-02-26 12:29:00,41.1,29.8,30.21,SE,127,2.0,2.0,64,0.00,,,0.02,Wunderground v.1.15,2013-02-26 17:29:00,
2013-02-26 12:34:00,41.2,29.5,30.21,ESE,109,3.0,4.0,63,0.00,,,0.02,Wunderground v.1.15,2013-02-26 17:34:00,
2013-02-26 12:44:00,41.1,29.1,30.21,ESE,122,3.0,4.0,62,0.00,,,0.02,Wunderground v.1.15,2013-02-26 17:44:00,
2013-02-26 12:49:00,41.2,29.5,30.21,SSE,155,2.0,5.0,63,0.00,,,0.02,Wunderground v.1.15,2013-02-26 17:49:00,
2013-02-26 12:54:00,41.3,30.0,30.21,SSE,152,3.0,5.0,64,0.00,,,0.02,Wunderground v.1.15,2013-02-26 17:54:00,
2013-02-26 13:00:00,41.3,29.3,30.21,SSE,152,2.0,2.0,62,0.00,,,0.02,Wunderground v.1.15,2013-02-26 18:00:00,
2013-02-26 13:09:00,41.6,28.7,30.20,SSE,152,1.0,1.0,60,0.00,,,0.02,Wunderground v.1.15,2013-02-26 18:09:00,
2013-02-26 13:19:00,42.0,29.1,30.20,SSE,151,1.0,1.0,60,0.00,,,0.02,Wunderground v.1.15,2013-02-26 18:19:00,
2013-02-26 13:24:00,42.1,28.8,30.20,SSE,151,2.0,2.0,59,0.00,,,0.02,Wunderground v.1.15,2013-02-26 18:24:00,
2013-02-26 13:29:00,42.3,29.0,30.19,SSE,151,1.0,2.0,59,0.00,,,0.02,Wunderground v.1.15,2013-02-26 18:29:00,
2013-02-26 13:34:00,42.2,28.9,30.19,SSE,151,2.0,3.0,59,0.00,,,0.02,Wunderground v.1.15,2013-02-26 18:34:00,
2013-02-26 13:39:00,42.0,28.7,30.19,SE,126,3.0,3.0,59,0.00,,,0.02,Wunderground v.1.15,2013-02-26 18:39:00,
2013-02-26 13:49:00,41.7,29.2,30.18,SE,125,3.0,7.0,61,0.00,,,0.02,Wunderground v.1.15,2013-02-26 18:49:00,
2013-02-26 13:54:00,41.6,28.7,30.17,SE,127,4.0,7.0,60,0.00,,,0.02,Wunderground v.1.15,2013-02-26 18:54:00,
2013-02-26 13:59:00,41.6,29.1,30.17,SE,130,3.0,5.0,61,0.00,,,0.02,Wunderground v.1.15,2013-02-26 18:59:00,
2013-02-26 14:09:00,41.6,29.1,30.16,SE,136,3.0,3.0,61,0.00,,,0.02,Wunderground v.1.15,2013-02-26 19:09:00,
2013-02-26 14:14:00,41.3,30.0,30.16,SE,124,4.0,4.0,64,0.00,,,0.02,Wunderground v.1.15,2013-02-26 19:14:00,
2013-02-26 14:24:00,40.8,30.3,30.15,ESE,121,6.0,9.0,66,0.00,,,0.02,Wunderground v.1.15,2013-02-26 19:24:00,
2013-02-26 14:29:00,40.5,30.4,30.14,SE,126,7.0,7.0,67,0.00,,,0.02,Wunderground v.1.15,2013-02-26 19:29:00,
2013-02-26 14:34:00,40.3,30.6,30.14,SE,134,7.0,7.0,68,0.00,,,0.02,Wunderground v.1.15,2013-02-26 19:34:00,
2013-02-26 14:39:00,40.2,30.8,30.13,ESE,115,7.0,7.0,69,0.00,,,0.02,Wunderground v.1.15,2013-02-26 19:39:00,
2013-02-26 14:44:00,40.2,31.2,30.13,SE,132,7.0,7.0,70,0.00,,,0.02,Wunderground v.1.15,2013-02-26 19:44:00,
2013-02-26 14:54:00,40.0,31.0,30.13,SE,126,8.0,8.0,70,0.00,,,0.02,Wunderground v.1.15,2013-02-26 19:54:00,
2013-02-26 14:59:00,39.8,31.2,30.12,ESE,109,8.0,8.0,71,0.00,,,0.02,Wunderground v.1.15,2013-02-26 19:59:00,
2013-02-26 15:09:00,39.9,30.9,30.12,SE,125,9.0,9.0,70,0.00,,,0.02,Wunderground v.1.15,2013-02-26 20:09:00,
2013-02-26 15:14:00,39.9,31.3,30.12,SE,134,7.0,9.0,71,0.00,,,0.02,Wunderground v.1.15,2013-02-26 20:14:00,
2013-02-26 15:19:00,39.9,31.3,30.12,SE,134,7.0,8.0,71,0.00,,,0.02,Wunderground v.1.15,2013-02-26 20:19:00,
2013-02-26 15:29:00,39.7,31.1,30.12,SE,146,9.0,9.0,71,0.00,,,0.02,Wunderground v.1.15,2013-02-26 20:29:00,
2013-02-26 15:34:00,39.5,31.2,30.12,SE,126,9.0,13.0,72,0.00,,,0.02,Wunderground v.1.15,2013-02-26 20:34:00,
2013-02-26 15:39:00,39.5,31.2,30.12,SE,130,8.0,13.0,72,0.00,,,0.02,Wunderground v.1.15,2013-02-26 20:39:00,
2013-02-26 15:44:00,39.5,31.2,30.12,SE,130,8.0,13.0,72,0.00,,,0.02,Wunderground v.1.15,2013-02-26 20:44:00,
2013-02-26 15:49:00,39.5,31.6,30.12,ESE,112,7.0,7.0,73,0.00,,,0.02,Wunderground v.1.15,2013-02-26 20:49:00,
2013-02-26 15:59:00,39.2,31.3,30.12,ESE,104,7.0,7.0,73,0.00,,,0.02,Wunderground v.1.15,2013-02-26 20:59:00,
2013-02-26 16:09:00,39.0,31.4,30.11,SE,131,6.0,7.0,74,0.00,,,0.02,Wunderground v.1.15,2013-02-26 21:09:00,
2013-02-26 16:14:00,39.0,31.4,30.11,SE,126,7.0,7.0,74,0.00,,,0.02,Wunderground v.1.15,2013-02-26 21:14:00,
2013-02-26 16:19:00,38.9,31.6,30.11,ESE,123,7.0,7.0,75,0.00,,,0.02,Wunderground v.1.15,2013-02-26 21:19:00,
2013-02-26 16:24:00,38.8,31.6,30.11,SE,135,6.0,7.0,75,0.00,,,0.02,Wunderground v.1.15,2013-02-26 21:24:00,
2013-02-26 16:34:00,38.8,31.6,30.11,SE,128,6.0,14.0,75,0.00,,,0.02,Wunderground v.1.15,2013-02-26 21:34:00,
2013-02-26 16:39:00,38.7,31.8,30.11,SE,146,6.0,6.0,76,0.00,,,0.02,Wunderground v.1.15,2013-02-26 21:39:00,
2013-02-26 16:44:00,38.6,31.7,30.11,SE,131,5.0,7.0,76,0.00,,,0.02,Wunderground v.1.15,2013-02-26 21:44:00,
2013-02-26 16:49:00,38.3,31.7,30.11,SE,133,6.0,14.0,77,0.00,,,0.02,Wunderground v.1.15,2013-02-26 21:49:00,
2013-02-26 16:54:00,38.1,31.5,30.11,SE,131,6.0,14.0,77,0.00,,,0.02,Wunderground v.1.15,2013-02-26 21:54:00,
2013-02-26 17:00:00,38.0,31.4,30.11,ESE,115,6.0,8.0,77,0.00,,,0.02,Wunderground v.1.15,2013-02-26 22:00:00,
2013-02-26 17:09:00,37.7,31.5,30.11,SE,128,6.0,6.0,78,0.00,,,0.02,Wunderground v.1.15,2013-02-26 22:09:00,
2013-02-26 17:14:00,37.7,31.5,30.11,ESE,121,6.0,6.0,78,0.00,,,0.02,Wunderground v.1.15,2013-02-26 22:14:00,
2013-02-26 17:19:00,37.4,31.5,30.11,SE,128,4.0,4.0,79,0.00,,,0.02,Wunderground v.1.15,2013-02-26 22:19:00,
2013-02-26 17:24:00,37.3,31.4,30.10,ESE,121,4.0,5.0,79,0.00,,,0.02,Wunderground v.1.15,2013-02-26 22:24:00,
2013-02-26 17:34:00,36.9,31.3,30.10,ESE,117,4.0,7.0,80,0.00,,,0.02,Wunderground v.1.15,2013-02-26 22:34:00,
2013-02-26 17:39:00,36.9,31.3,30.10,SE,133,4.0,11.0,80,0.00,,,0.02,Wunderground v.1.15,2013-02-26 22:39:00,
2013-02-26 17:44:00,36.8,31.5,30.10,SE,128,4.0,11.0,81,0.00,,,0.02,Wunderground v.1.15,2013-02-26 22:44:00,
2013-02-26 17:49:00,36.7,31.4,30.10,SE,129,5.0,11.0,81,0.00,,,0.02,Wunderground v.1.15,2013-02-26 22:49:00,
2013-02-26 17:54:00,36.6,31.3,30.10,ESE,109,5.0,11.0,81,0.00,,,0.02,Wunderground v.1.15,2013-02-26 22:54:00,
2013-02-26 18:00:00,36.5,31.2,30.10,ESE,114,6.0,6.0,81,0.00,,,0.02,Wunderground v.1.15,2013-02-26 23:00:00,
2013-02-26 18:09:00,36.3,31.3,30.09,SE,126,5.0,5.0,82,0.00,,,0.02,Wunderground v.1.15,2013-02-26 23:09:00,
2013-02-26 18:14:00,36.0,31.0,30.09,ESE,113,5.0,5.0,82,0.00,,,0.02,Wunderground v.1.15,2013-02-26 23:14:00,
2013-02-26 18:19:00,35.8,31.1,30.08,ESE,119,5.0,5.0,83,0.00,,,0.02,Wunderground v.1.15,2013-02-26 23:19:00,
2013-02-26 18:24:00,35.6,30.9,30.08,SE,128,5.0,5.0,83,0.00,,,0.02,Wunderground v.1.15,2013-02-26 23:24:00,
2013-02-26 18:29:00,35.4,31.0,30.08,SE,128,6.0,6.0,84,0.00,,,0.02,Wunderground v.1.15,2013-02-26 23:29:00,
2013-02-26 18:39:00,35.3,30.9,30.09,SE,130,5.0,5.0,84,0.00,,,0.02,Wunderground v.1.15,2013-02-26 23:39:00,
2013-02-26 18:44:00,35.2,30.9,30.09,SE,132,5.0,6.0,84,0.00,,,0.02,Wunderground v.1.15,2013-02-26 23:44:00,
2013-02-26 18:49:00,35.2,31.1,30.09,ESE,115,5.0,10.0,85,0.00,,,0.02,Wunderground v.1.15,2013-02-26 23:49:00,
2013-02-26 18:54:00,35.1,31.0,30.09,SE,136,5.0,10.0,85,0.00,,,0.02,Wunderground v.1.15,2013-02-26 23:54:00,
2013-02-26 18:59:00,35.0,30.9,30.09,SE,128,5.0,8.0,85,0.00,,,0.02,Wunderground v.1.15,2013-02-26 23:59:00,
2013-02-26 19:09:00,35.0,31.2,30.10,SE,125,6.0,6.0,86,0.00,,,0.02,Wunderground v.1.15,2013-02-27 00:09:00,
2013-02-26 19:14:00,34.8,31.0,30.10,SE,132,6.0,6.0,86,0.00,,,0.02,Wunderground v.1.15,2013-02-27 00:14:00,
2013-02-26 19:19:00,34.7,30.9,30.11,SE,128,6.0,6.0,86,0.00,,,0.02,Wunderground v.1.15,2013-02-27 00:19:00,
2013-02-26 19:24:00,34.6,30.8,30.10,SE,131,6.0,6.0,86,0.00,,,0.02,Wunderground v.1.15,2013-02-27 00:24:00,
2013-02-26 19:29:00,34.6,30.8,30.10,SE,125,6.0,7.0,86,0.00,,,0.02,Wunderground v.1.15,2013-02-27 00:29:00,
2013-02-26 19:34:00,34.5,30.7,30.10,ESE,116,5.0,10.0,86,0.00,,,0.02,Wunderground v.1.15,2013-02-27 00:34:00,
2013-02-26 19:44:00,34.4,30.6,30.11,SE,138,5.0,10.0,86,0.00,,,0.02,Wunderground v.1.15,2013-02-27 00:44:00,
2013-02-26 19:49:00,34.4,30.9,30.11,SE,133,5.0,10.0,87,0.00,,,0.02,Wunderground v.1.15,2013-02-27 00:49:00,
2013-02-26 19:54:00,34.4,30.9,30.11,SSE,150,4.0,10.0,87,0.00,,,0.02,Wunderground v.1.15,2013-02-27 00:54:00,
2013-02-26 19:59:00,34.4,30.6,30.11,SE,146,5.0,5.0,86,0.00,,,0.02,Wunderground v.1.15,2013-02-27 00:59:00,
2013-02-26 20:09:00,34.3,30.5,30.10,SE,142,5.0,5.0,86,0.00,,,0.02,Wunderground v.1.15,2013-02-27 01:09:00,
2013-02-26 20:19:00,34.4,30.6,30.10,SE,129,6.0,8.0,86,0.00,,,0.02,Wunderground v.1.15,2013-02-27 01:19:00,
2013-02-26 20:24:00,34.4,30.6,30.09,SE,136,6.0,8.0,86,0.00,,,0.02,Wunderground v.1.15,2013-02-27 01:24:00,
2013-02-26 20:29:00,34.5,30.5,30.09,SE,141,6.0,6.0,85,0.00,,,0.02,Wunderground v.1.15,2013-02-27 01:29:00,
2013-02-26 20:34:00,34.4,30.6,30.09,SE,125,6.0,9.0,86,0.00,,,0.02,Wunderground v.1.15,2013-02-27 01:34:00,
2013-02-26 20:39:00,34.3,30.5,30.08,ESE,117,6.0,6.0,86,0.00,,,0.02,Wunderground v.1.15,2013-02-27 01:39:00,
2013-02-26 20:49:00,34.2,30.4,30.08,SE,136,6.0,6.0,86,0.00,,,0.02,Wunderground v.1.15,2013-02-27 01:49:00,
2013-02-26 20:54:00,34.1,30.6,30.08,SE,135,6.0,9.0,87,0.00,,,0.02,Wunderground v.1.15,2013-02-27 01:54:00,
2013-02-26 20:59:00,34.2,30.7,30.08,SE,144,7.0,7.0,87,0.00,,,0.02,Wunderground v.1.15,2013-02-27 01:59:00,
2013-02-26 21:09:00,34.2,30.7,30.08,SE,146,7.0,7.0,87,0.00,,,0.02,Wunderground v.1.15,2013-02-27 02:09:00,
2013-02-26 21:14:00,34.1,30.6,30.07,SSE,157,6.0,7.0,87,0.00,,,0.02,Wunderground v.1.15,2013-02-27 02:14:00,
2013-02-26 21:19:00,33.9,30.4,30.07,SSE,150,5.0,5.0,87,0.00,,,0.02,Wunderground v.1.15,2013-02-27 02:19:00,
2013-02-26 21:24:00,33.9,30.7,30.07,SSE,157,5.0,6.0,88,0.00,,,0.02,Wunderground v.1.15,2013-02-27 02:24:00,
2013-02-26 21:29:00,33.8,30.3,30.07,SSE,155,5.0,6.0,87,0.00,,,0.02,Wunderground v.1.15,2013-02-27 02:29:00,
2013-02-26 21:34:00,33.8,30.6,30.07,SSE,153,5.0,9.0,88,0.00,,,0.02,Wunderground v.1.15,2013-02-27 02:34:00,
2013-02-26 21:39:00,33.8,30.6,30.07,SE,144,5.0,9.0,88,0.00,,,0.02,Wunderground v.1.15,2013-02-27 02:39:00,
2013-02-26 21:44:00,33.7,30.5,30.06,SE,146,5.0,9.0,88,0.00,,,0.02,Wunderground v.1.15,2013-02-27 02:44:00,
2013-02-26 21:54:00,33.5,30.3,30.06,SE,146,5.0,9.0,88,0.00,,,0.02,Wunderground v.1.15,2013-02-27 02:54:00,
2013-02-26 21:59:00,33.4,30.2,30.05,SE,145,5.0,7.0,88,0.00,,,0.02,Wunderground v.1.15,2013-02-27 02:59:00,
2013-02-26 22:09:00,33.3,30.4,30.03,SE,140,5.0,5.0,89,0.00,,,0.02,Wunderground v.1.15,2013-02-27 03:09:00,
2013-02-26 22:14:00,33.4,30.5,30.03,ESE,119,6.0,8.0,89,0.00,,,0.02,Wunderground v.1.15,2013-02-27 03:14:00,
2013-02-26 22:19:00,33.4,30.5,30.03,SE,142,7.0,7.0,89,0.00,,,0.02,Wunderground v.1.15,2013-02-27 03:19:00,
2013-02-26 22:29:00,33.3,30.4,30.02,SE,128,7.0,7.0,89,0.00,,,0.02,Wunderground v.1.15,2013-02-27 03:29:00,
2013-02-26 22:34:00,33.3,30.4,30.02,SE,143,7.0,8.0,89,0.00,,,0.02,Wunderground v.1.15,2013-02-27 03:34:00,
2013-02-26 22:39:00,33.3,30.7,30.01,SE,139,7.0,7.0,90,0.00,,,0.02,Wunderground v.1.15,2013-02-27 03:39:00,
2013-02-26 22:44:00,33.2,30.6,30.01,SE,141,7.0,8.0,90,0.00,,,0.02,Wunderground v.1.15,2013-02-27 03:44:00,
2013-02-26 22:49:00,33.2,30.6,30.00,SSE,150,7.0,8.0,90,0.00,,,0.02,Wunderground v.1.15,2013-02-27 03:49:00,
2013-02-26 22:59:00,33.1,30.5,30.00,SE,132,6.0,7.0,90,0.00,,,0.02,Wunderground v.1.15,2013-02-27 03:59:00,
2013-02-26 23:09:00,33.2,30.6,29.99,ESE,117,6.0,6.0,90,0.00,,,0.02,Wunderground v.1.15,2013-02-27 04:09:00,
2013-02-26 23:14:00,33.1,30.5,29.99,SE,132,6.0,6.0,90,0.00,,,0.02,Wunderground v.1.15,2013-02-27 04:14:00,
2013-02-26 23:19:00,33.1,30.5,29.99,SE,141,6.0,6.0,90,0.00,,,0.02,Wunderground v.1.15,2013-02-27 04:19:00,
2013-02-26 23:24:00,33.1,30.5,29.99,SE,135,6.0,6.0,90,0.00,,,0.02,Wunderground v.1.15,2013-02-27 04:24:00,
2013-02-26 23:29:00,33.0,30.1,29.99,SE,133,6.0,6.0,89,0.00,,,0.02,Wunderground v.1.15,2013-02-27 04:29:00,
2013-02-26 23:34:00,32.9,30.3,29.99,SE,128,5.0,11.0,90,0.00,,,0.02,Wunderground v.1.15,2013-02-27 04:34:00,
2013-02-26 23:39:00,32.9,30.3,29.99,SE,131,4.0,11.0,90,0.00,,,0.02,Wunderground v.1.15,2013-02-27 04:39:00,
2013-02-26 23:44:00,32.8,30.2,29.99,SE,126,4.0,11.0,90,0.00,,,0.02,Wunderground v.1.15,2013-02-27 04:44:00,
2013-02-26 23:49:00,32.8,30.2,29.99,SE,127,4.0,4.0,90,0.00,,,0.02,Wunderground v.1.15,2013-02-27 04:49:00,
2013-02-26 23:54:00,32.6,30.0,29.98,SE,130,3.0,5.0,90,0.00,,,0.02,Wunderground v.1.15,2013-02-27 04:54:00,
2013-02-26 23:59:00,32.6,30.0,29.98,SE,134,4.0,4.0,90,0.00,,,0.02,Wunderground v.1.15,2013-02-27 04:59:00,